| time (UTC) | temp F | wind direction | speed MPH | gust MPH | rain 1hr in | rain 24hr in | rain mn in | humidity % | barometer mb |
| 20260506013057 | 33 | 0 | 0.0 | 2.0 | 0.00 | 0.39 | 0.19 | 89 | 1023.3 |
| 20260506011606 | 33 | 327 | 0.0 | 3.0 | 0.00 | 0.39 | 0.19 | 89 | 1022.9 |
| 20260506010054 | 33 | 294 | 0.0 | 3.0 | 0.00 | 0.39 | 0.19 | 89 | 1022.9 |
| 20260506004549 | 33 | 255 | 0.0 | 3.0 | 0.00 | 0.39 | 0.19 | 89 | 1023.0 |
| 20260506003053 | 33 | 349 | 0.0 | 2.0 | 0.00 | 0.39 | 0.19 | 89 | 1022.7 |
| 20260506001554 | 33 | 251 | 0.0 | 3.0 | 0.00 | 0.39 | 0.19 | 89 | 1022.9 |
| 20260506000050 | 33 | 0 | 0.0 | 0.0 | 0.00 | 0.39 | 0.19 | 89 | 1022.7 |
| 20260505234558 | 33 | 0 | 0.0 | 0.0 | 0.00 | 0.39 | 0.19 | 89 | 1022.5 |
| 20260505233050 | 33 | 311 | 0.0 | 3.0 | 0.00 | 0.39 | 0.19 | 89 | 1022.3 |
| 20260505231604 | 33 | 327 | 0.0 | 3.0 | 0.00 | 0.39 | 0.19 | 88 | 1022.1 |
| 20260505230054 | 33 | 319 | 1.0 | 7.0 | 0.01 | 0.39 | 0.19 | 88 | 1022.0 |
| 20260505224551 | 34 | 284 | 1.0 | 6.0 | 0.02 | 0.39 | 0.19 | 88 | 1022.4 |
| 20260505223059 | 34 | 320 | 1.0 | 8.0 | 0.03 | 0.39 | 0.19 | 88 | 1021.7 |
| 20260505221558 | 35 | 240 | 0.0 | 7.0 | 0.03 | 0.39 | 0.19 | 87 | 1021.3 |
| 20260505220053 | 36 | 351 | 1.0 | 5.0 | 0.03 | 0.38 | 0.18 | 87 | 1021.7 |
| 20260505214613 | 38 | 0 | 2.0 | 7.0 | 0.02 | 0.37 | 0.17 | 87 | 1021.0 |
| 20260505213054 | 39 | 36 | 1.0 | 4.0 | 0.01 | 0.36 | 0.16 | 87 | 1021.1 |
| 20260505211550 | 40 | 0 | 0.0 | 3.0 | 0.02 | 0.36 | 0.16 | 88 | 1021.1 |
| 20260505210051 | 40 | 281 | 0.0 | 4.0 | 0.02 | 0.35 | 0.15 | 89 | 1021.2 |
| 20260505204554 | 40 | 0 | 1.0 | 4.0 | 0.02 | 0.35 | 0.15 | 89 | 1021.5 |
| 20260505203053 | 40 | 0 | 0.0 | 4.0 | 0.02 | 0.35 | 0.15 | 88 | 1021.7 |
| 20260505201554 | 40 | 49 | 0.0 | 6.0 | 0.02 | 0.34 | 0.14 | 88 | 1022.3 |
| 20260505200059 | 40 | 0 | 0.0 | 5.0 | 0.01 | 0.33 | 0.13 | 88 | 1022.0 |
| 20260505194556 | 40 | 0 | 2.0 | 8.0 | 0.01 | 0.35 | 0.13 | 88 | 1022.3 |
| 20260505193053 | 40 | 0 | 0.0 | 5.0 | 0.01 | 0.35 | 0.13 | 88 | 1022.2 |
| 20260505191550 | 41 | 0 | 0.0 | 4.0 | 0.00 | 0.34 | 0.12 | 88 | 1022.2 |
| 20260505190054 | 40 | 0 | 0.0 | 2.0 | 0.01 | 0.34 | 0.12 | 89 | 1022.2 |
| 20260505184551 | 40 | 0 | 0.0 | 3.0 | 0.01 | 0.34 | 0.12 | 89 | 1022.5 |
| 20260505183106 | 39 | 0 | 0.0 | 1.0 | 0.01 | 0.34 | 0.12 | 89 | 1022.9 |
| 20260505181550 | 39 | 270 | 0.0 | 3.0 | 0.01 | 0.34 | 0.12 | 89 | 1023.0 |
| 20260505180057 | 39 | 0 | 0.0 | 5.0 | 0.00 | 0.33 | 0.11 | 90 | 1023.1 |
| 20260505174600 | 39 | 0 | 0.0 | 4.0 | 0.00 | 0.33 | 0.11 | 89 | 1023.4 |
| 20260505173056 | 38 | 0 | 0.0 | 4.0 | 0.00 | 0.33 | 0.11 | 89 | 1023.5 |
| 20260505171552 | 39 | 0 | 1.0 | 4.0 | 0.00 | 0.33 | 0.11 | 89 | 1023.7 |
| 20260505170051 | 38 | 0 | 0.0 | 4.0 | 0.00 | 0.33 | 0.11 | 90 | 1023.6 |
| 20260505164555 | 38 | 0 | 0.0 | 1.0 | 0.01 | 0.33 | 0.11 | 90 | 1023.7 |
| 20260505163049 | 38 | 0 | 0.0 | 3.0 | 0.01 | 0.33 | 0.11 | 90 | 1023.9 |
| 20260505161550 | 38 | 0 | 0.0 | 2.0 | 0.02 | 0.33 | 0.11 | 90 | 1024.0 |
| 20260505153100 | 37 | 0 | 0.0 | 2.0 | 0.01 | 0.32 | 0.10 | 90 | 1024.1 |
| 20260505151556 | 36 | 0 | 0.0 | 0.0 | 0.01 | 0.31 | 0.09 | 90 | 1024.2 |
| 20260505140111 | 35 | 276 | 0.0 | 4.0 | 0.01 | 0.30 | 0.08 | 89 | 1024.3 |
| 20260505124547 | 35 | 330 | 0.0 | 3.0 | 0.01 | 0.28 | 0.06 | 89 | 1023.5 |
| 20260505123055 | 35 | 0 | 0.0 | 3.0 | 0.02 | 0.28 | 0.06 | 88 | 1023.1 |
| 20260505121559 | 36 | 0 | 0.0 | 3.0 | 0.02 | 0.28 | 0.06 | 88 | 1023.3 |
| 20260505120055 | 36 | 328 | 0.0 | 5.0 | 0.03 | 0.27 | 0.05 | 88 | 1023.1 |
| 20260505114600 | 36 | 0 | 1.0 | 7.0 | 0.04 | 0.27 | 0.05 | 88 | 1023.0 |
| 20260505113120 | 37 | 321 | 0.0 | 4.0 | 0.04 | 0.26 | 0.04 | 88 | 1022.9 |
| 20260505111552 | 38 | 0 | 0.0 | 6.0 | 0.04 | 0.26 | 0.04 | 88 | 1022.7 |
| 20260505101556 | 40 | 241 | 1.0 | 6.0 | 0.00 | 0.22 | 0.00 | 88 | 1021.6 |
| 20260505100059 | 41 | 47 | 1.0 | 9.0 | 0.00 | 0.22 | 0.00 | 88 | 1021.3 |
| 20260505094557 | 41 | 46 | 2.0 | 9.0 | 0.00 | 0.22 | 0.00 | 88 | 1021.0 |
| 20260505093102 | 41 | 0 | 2.0 | 9.0 | 0.00 | 0.22 | 0.00 | 87 | 1021.0 |
| 20260505091603 | 42 | 266 | 3.0 | 11.0 | 0.00 | 0.22 | 0.00 | 87 | 1021.1 |
| 20260505090051 | 42 | 10 | 1.0 | 9.0 | 0.00 | 0.22 | 0.00 | 87 | 1020.6 |
| 20260505084556 | 43 | 84 | 2.0 | 7.0 | 0.00 | 0.22 | 0.00 | 86 | 1020.8 |
| 20260505083101 | 44 | 286 | 2.0 | 8.0 | 0.00 | 0.22 | 0.00 | 86 | 1020.8 |
| 20260505081604 | 46 | 297 | 0.0 | 4.0 | 0.00 | 0.22 | 0.00 | 87 | 1020.9 |
| 20260505080053 | 46 | 0 | 0.0 | 0.0 | 0.00 | 0.22 | 0.00 | 87 | 1020.7 |
| 20260505074558 | 45 | 0 | 0.0 | 0.0 | 0.00 | 0.22 | 0.00 | 86 | 1020.4 |
| 20260505073136 | 45 | 0 | 0.0 | 0.0 | 0.00 | 0.22 | 0.00 | 86 | 1020.6 |
| 20260505071602 | 45 | 0 | 0.0 | 0.0 | 0.00 | 0.22 | 0.00 | 86 | 1020.6 |
| 20260505070101 | 45 | 0 | 0.0 | 0.0 | 0.00 | 0.22 | 0.00 | 86 | 1020.7 |
| 20260505064552 | 46 | 0 | 0.0 | 0.0 | 0.00 | 0.22 | 0.00 | 86 | 1020.6 |
| 20260505063053 | 45 | 0 | 0.0 | 0.0 | 0.00 | 0.22 | 0.00 | 85 | 1020.8 |
| 20260505061552 | 45 | 0 | 0.0 | 0.0 | 0.00 | 0.22 | 0.00 | 85 | 1020.6 |
| 20260505060058 | 45 | 0 | 0.0 | 0.0 | 0.00 | 0.22 | 0.00 | 85 | 1020.7 |
| 20260505054549 | 46 | 0 | 0.0 | 0.0 | 0.01 | 0.22 | 0.22 | 84 | 1020.8 |
| 20260505053056 | 46 | 0 | 0.0 | 0.0 | 0.01 | 0.22 | 0.22 | 84 | 1020.7 |
| 20260505051558 | 46 | 0 | 0.0 | 0.0 | 0.01 | 0.22 | 0.22 | 83 | 1020.6 |
| 20260505041549 | 46 | 0 | 0.0 | 3.0 | 0.12 | 0.21 | 0.21 | 82 | 1021.1 |
| 20260505040051 | 47 | 0 | 0.0 | 2.0 | 0.17 | 0.21 | 0.21 | 81 | 1021.3 |
| 20260505034554 | 48 | 266 | 0.0 | 1.0 | 0.18 | 0.20 | 0.20 | 80 | 1021.1 |
| 20260505033049 | 48 | 242 | 1.0 | 4.0 | 0.12 | 0.14 | 0.14 | 79 | 1021.6 |
| 20260505031554 | 49 | 264 | 1.0 | 11.0 | 0.07 | 0.09 | 0.09 | 76 | 1021.3 |
| 20260505030055 | 51 | 285 | 1.0 | 5.0 | 0.02 | 0.04 | 0.04 | 73 | 1020.9 |
| 20260505024600 | 51 | 360 | 0.0 | 4.0 | 0.00 | 0.02 | 0.02 | 68 | 1020.5 |
| 20260505023054 | 52 | 302 | 0.0 | 4.0 | 0.00 | 0.02 | 0.02 | 65 | 1020.1 |
| 20260505021551 | 53 | 0 | 0.0 | 4.0 | 0.00 | 0.02 | 0.02 | 63 | 1019.9 |
| 20260505020051 | 54 | 0 | 1.0 | 6.0 | 0.00 | 0.02 | 0.02 | 59 | 1019.8 |
| 20260505014551 | 55 | 0 | 0.0 | 2.0 | 0.00 | 0.02 | 0.02 | 55 | 1019.8 |